ZHONGXING-11

Last updated on Wed Dec 17 2025 00:02:51 GMT+0000 (Coordinated Universal Time)

1 39157U 13020A 25350.29061957 -.00000267 00000+0 00000+0 0 9999 2 39157 0.0071 359.4873 0002528 276.1900 12.0595 1.00270675 46062
UTC large
Height (km)
Speed (km/s)
/
Latitude / Longitude
Inclination (degrees)
Orbital Period (minutes)
Azimuth
Elevation
Range (km)
Doppler Factor

Next 0 passes for location: London (51.5072 / 0.1276)

Sorry there are no passes over London.